RH
17 19 28 51 91 92 97 89 56 38 79 98 86 48 28 18 15 15 15 17 18 18 18 19 20 20 19 18 17 14 13 10 10 9 9 8 7 6 7 7 8 9 11
15 15 23 24 82 96 85 97 95 62 77 98 85 49 30 20 16 15 16 16 16 18 19 20 21 21 21 21 20 19 17 15 12 11 10 10 9 7 7 8 9 10 11
13 15 22 40 83 81 78 93 100 67 85 83 89 71 38 27 21 17 16 15 15 16 18 20 21 23 23 23 23 22 21 19 17 14 14 12 11 10 9 9 10 11 12
12 18 19 34 78 84 86 100 99 83 88 97 94 44 34 23 18 16 16 16 16 16 16 16 18 22 23 24 24 24 24 22 20 18 16 15 14 13 12 11 11 12 13
10 18 20 30 68 88 98 98 95 98 92 90 65 60 43 31 27 23 20 19 18 18 17 17 17 17 17 18 21 23 23 24 24 22 19 18 17 16 14 14 15 16 17
12 18 24 27 46 91 99 100 100 96 88 76 64 57 48 34 32 29 25 23 22 21 21 20 19 19 19 19 20 22 21 24 24 24 23 21 20 19 19 17 17 16 18
20 20 25 42 54 83 96 100 98 99 99 99 94 98 83 43 36 39 33 28 26 25 26 26 25 24 24 25 24 24 24 25 26 26 26 25 23 22 22 20 20 20 22
28 22 26 41 59 58 73 85 97 100 99 98 100 98 96 98 96 92 72 46 39 33 35 36 36 36 36 37 35 34 33 32 31 30 29 28 27 26 25 24 23 23 22
36 32 29 30 42 54 64 68 66 70 88 98 100 100 100 100 100 100 100 100 86 58 52 46 46 50 53 52 50 49 47 45 43 40 37 34 32 31 28 27 26 27 26
40 38 36 30 34 44 49 50 48 46 63 82 87 98 99 100 100 100 100 100 100 96 98 90 67 62 66 67 64 65 65 60 57 53 46 41 37 34 32 32 31 31 32
43 42 41 39 37 37 37 35 32 34 38 37 41 49 68 99 100 100 100 99 97 87 100 100 99 88 80 86 77 72 74 74 75 72 66 58 52 47 39 38 38 37 38
46 45 45 43 42 40 38 40 41 40 38 39 39 52 66 88 94 88 98 100 100 98 100 100 100 100 99 98 95 95 100 98 98 92 90 85 76 57 45 41 42 44 45
54 52 51 46 46 46 45 43 42 43 42 43 47 49 52 58 68 79 73 69 71 86 80 91 90 87 99 99 99 100 100 100 99 96 99 99 100 98 92 84 56 70 80
49 48 50 53 53 53 50 47 45 44 43 44 45 46 49 50 49 48 48 48 47 48 52 55 56 61 87 100 100 100 100 100 100 100 100 97 90 76 99 100 99 98 95
67 62 57 54 52 50 49 48 47 45 45 45 44 44 44 45 45 45 44 45 46 43 36 32 34 39 47 85 88 99 99 97 86 96 99 97 89 85 99 100 100 100 97
78 74 72 69 67 66 64 62 58 51 47 48 48 46 42 42 41 38 36 41 40 44 46 38 33 32 30 38 63 100 98 100 100 98 100 94 92 100 99 100 100 100 100
90 84 80 76 73 72 70 67 65 62 58 56 54 54 48 41 36 36 38 36 33 39 41 48 49 38 37 34 60 90 100 100 98 100 97 98 99 100 98 100 99 98 97
99 96 95 95 87 86 90 91 79 74 69 64 54 40 38 36 30 25 32 36 37 32 37 42 44 51 52 55 93 80 85 94 99 99 98 100 100 100 98 98 97 98 96
98 96 96 97 98 95 93 94 87 78 74 77 43 40 39 36 35 31 19 19 33 35 32 40 44 44 52 51 72 79 91 99 96 100 99 100 95 98 100 96 97 97 97
94 96 96 97 95 90 76 73 69 60 55 46 39 32 25 23 22 21 20 17 27 31 34 33 42 46 48 55 57 76 97 96 100 99 99 100 93 99 99 94 96 96 97
94 96 98 83 89 76 65 61 59 61 52 44 40 37 27 19 16 16 19 20 34 36 36 36 39 50 53 64 77 91 94 100 100 99 100 99 99 98 98 97 97 96 95
95 96 93 86 89 83 76 78 70 57 48 44 41 34 33 26 16 14 17 34 42 42 42 42 42 52 57 76 95 100 100 100 100 100 100 100 98 98 98 97 95 96 97
98 96 98 97 96 97 97 89 75 66 60 55 50 46 43 32 22 19 24 41 45 43 62 80 77 71 81 96 100 100 100 100 100 100 98 99 99 100 98 95 97 98 97
70 87 90 92 90 77 91 95 79 72 64 54 50 44 39 37 39 36 45 47 48 52 58 93 100 100 100 98 100 97 100 96 99 98 96 96 99 97 96 96 97 97 96
56 48 55 77 89 68 49 51 53 54 66 57 52 40 34 30 33 34 42 47 52 54 68 98 100 99 100 100 98 100 98 99 97 97 95 95 96 96 96 96 96 97 96
60 54 46 39 37 43 58 46 44 42 39 35 38 41 44 46 27 25 20 35 49 54 59 69 92 98 97 98 95 97 97 97 97 97 97 96 96 97 98 98 97 96 96
Wind_Speed
18 24 23 24 27 23 23 26 37 60 55 47 42 44 41 39 38 36 34 31 29 27 26 22 19 18 14 15 14 12 11 11 10 11 11 12 12 14 14 13 15 15 15
24 25 24 23 25 24 26 29 42 49 50 45 44 42 40 39 38 38 36 34 33 31 28 25 22 20 20 16 16 14 12 12 12 12 14 14 13 16 17 16 16 17 18
23 25 24 21 21 21 28 19 35 48 49 40 47 44 43 44 43 40 37 35 34 31 29 26 26 25 24 21 20 17 16 15 15 15 14 15 15 16 18 18 19 18 19
20 24 24 20 18 15 17 19 29 53 41 40 43 44 44 44 42 38 37 37 36 34 32 30 30 27 26 23 22 22 21 19 17 16 16 16 17 17 18 18 19 21 20
18 23 22 19 15 12 22 19 25 40 34 47 41 41 44 42 39 37 38 38 36 34 33 31 30 29 28 27 24 24 22 20 20 19 18 19 19 19 19 19 19 21 22
16 23 22 21 19 19 22 20 29 32 35 35 34 40 43 42 41 40 40 39 37 36 34 32 31 30 29 27 26 25 26 21 21 20 21 21 21 21 22 22 23 24 24
14 22 23 22 20 21 20 20 13 21 25 40 35 30 30 36 37 36 36 37 38 37 34 33 32 31 29 28 29 27 26 22 22 21 22 24 24 24 25 25 25 26 26
10 18 23 24 25 23 22 18 24 23 17 20 27 32 35 33 32 32 33 35 37 35 34 33 32 31 30 30 30 29 27 24 23 25 26 25 26 26 27 27 27 28 29
11 13 19 27 26 28 26 24 23 22 27 20 18 20 28 28 27 29 32 31 33 36 36 35 35 34 33 32 32 31 27 26 27 28 28 28 29 29 30 29 30 29 31
11 11 12 19 29 28 27 27 24 23 25 28 30 25 23 25 35 33 31 26 26 30 39 42 37 39 38 38 37 32 30 31 31 30 32 32 32 33 34 33 32 32 32
15 14 13 15 20 22 22 23 24 25 25 25 27 29 31 30 30 31 31 44 40 34 27 29 42 44 39 38 34 34 35 37 34 34 35 37 37 38 37 36 35 32 32
18 18 18 18 18 20 20 20 19 18 17 18 21 23 22 22 22 22 22 25 29 30 30 32 28 30 35 40 32 39 45 42 45 39 38 39 43 42 42 38 37 33 31
23 20 18 18 19 20 20 19 18 17 16 16 19 19 19 20 22 23 25 25 27 30 31 32 34 36 37 38 37 37 35 34 34 38 47 43 48 48 54 49 42 38 36
25 24 22 20 19 17 17 17 17 16 15 15 14 14 14 16 18 22 24 27 28 30 31 32 32 33 32 35 36 33 28 28 31 36 30 29 25 28 34 52 55 53 42
27 27 26 24 22 20 18 17 16 13 12 12 11 10 11 13 16 19 21 21 23 26 32 35 35 35 37 34 35 37 32 36 36 26 27 22 24 25 26 38 48 53 46
29 28 27 26 24 21 19 16 16 19 18 16 14 13 13 15 17 17 19 23 25 25 25 27 32 33 32 37 39 30 37 29 24 21 21 22 24 22 20 27 36 43 41
31 30 30 29 27 23 20 18 16 14 15 23 25 23 21 19 20 22 24 24 23 26 27 25 25 30 31 30 33 28 34 30 28 28 22 23 19 18 22 23 29 34 36
34 33 33 34 31 28 22 24 23 19 17 21 23 19 22 22 19 21 25 28 28 26 27 29 27 27 30 29 29 36 40 31 34 25 21 24 20 19 19 21 28 28 29
24 25 17 18 20 29 27 25 30 29 32 25 22 19 19 21 23 23 21 28 30 30 28 27 29 29 30 31 30 30 33 30 30 27 26 26 24 23 23 23 24 27 27
22 15 14 11 12 12 14 18 25 26 27 25 22 22 21 21 22 24 24 25 26 29 30 29 27 29 29 30 33 32 36 35 26 31 26 26 26 28 26 26 25 25 26
15 13 13 17 18 17 16 19 21 26 26 24 23 22 23 23 24 26 25 25 26 27 29 29 27 27 29 29 29 27 29 29 26 28 25 24 27 27 26 24 25 26 26
13 16 18 20 23 23 24 25 26 25 23 23 23 24 24 24 25 27 26 25 25 25 27 28 26 25 26 27 26 29 29 27 26 23 22 22 24 24 24 27 27 27 29
9 10 13 15 20 25 27 29 28 28 26 25 27 26 24 25 25 24 25 23 22 25 25 25 24 22 21 23 21 26 29 27 24 23 24 25 23 26 29 28 26 28 28
9 10 11 12 13 16 22 29 31 29 29 28 26 25 24 23 23 22 22 23 21 22 27 24 24 25 23 23 25 26 31 29 25 26 27 29 30 29 26 28 29 30 28
10 10 13 14 16 17 18 21 24 24 30 32 31 29 24 23 25 22 21 21 20 22 23 25 27 28 28 29 28 27 25 24 27 28 30 32 31 28 29 30 31 29 27
13 13 13 14 18 21 22 22 22 26 26 25 25 27 29 31 25 23 24 23 22 21 23 24 27 27 29 29 27 27 22 25 31 29 30 31 29 30 31 31 29 28 26
Wind_Direction
240 237 234 238 242 250 241 239 226 213 209 215 210 207 210 208 207 207 209 209 211 214 215 212 205 212 207 209 212 219 227 232 238 244 245 243 250 250 240 243 253 254 255
246 227 228 235 241 253 246 238 233 208 206 206 215 209 211 212 209 209 210 209 212 214 216 214 212 208 213 212 221 220 226 235 238 245 248 246 247 252 255 248 247 253 258
248 234 229 226 236 258 269 257 215 204 198 208 208 212 209 212 211 209 209 212 215 217 218 217 217 219 213 209 217 222 221 224 233 237 243 251 255 259 260 262 257 255 260
244 226 226 228 235 270 240 231 194 194 207 202 215 210 211 213 213 213 215 215 216 218 218 219 220 223 224 217 218 222 226 226 235 238 243 248 253 258 260 262 265 266 263
234 218 217 219 225 231 176 179 184 197 203 200 206 209 210 212 213 215 216 217 218 219 220 222 223 225 228 229 226 229 231 229 234 238 243 245 249 252 258 260 264 264 262
222 208 207 208 210 205 221 209 197 181 189 200 205 210 212 212 211 212 215 218 219 219 220 222 225 226 230 232 234 231 235 233 234 236 244 247 248 251 253 255 255 256 258
200 203 202 198 207 212 222 226 228 193 199 201 198 205 208 212 213 217 220 223 224 223 223 225 226 228 232 235 238 237 236 234 237 239 243 246 248 250 253 255 259 262 262
175 196 205 202 205 218 223 224 237 240 219 199 205 197 205 208 209 214 227 226 227 228 228 228 229 231 231 234 236 237 237 236 238 241 242 245 251 253 254 256 259 263 266
192 184 202 211 202 205 212 215 218 227 240 231 231 231 208 210 201 209 213 213 228 228 228 228 229 228 231 232 236 235 236 237 239 241 243 244 245 251 253 254 256 260 263
186 190 180 199 209 209 211 221 233 236 235 239 251 244 221 220 220 219 217 221 225 243 237 234 230 230 230 231 233 235 237 239 240 243 246 247 248 248 249 249 250 252 257
198 191 188 185 193 204 218 222 226 232 232 235 231 242 260 242 229 227 227 225 229 226 240 236 225 230 231 235 240 243 243 242 240 243 246 248 249 249 249 250 249 249 253
197 203 200 200 199 195 204 215 222 228 226 224 234 239 239 242 254 261 255 245 246 248 248 253 249 252 247 239 235 245 249 258 250 250 253 257 257 255 253 250 251 251 253
180 183 182 188 195 198 196 202 213 218 223 229 227 231 234 233 234 231 235 239 244 246 247 243 247 248 242 245 253 263 255 257 260 261 259 262 267 269 255 249 243 243 246
173 173 177 181 184 190 185 193 199 210 220 222 224 232 238 241 245 245 245 245 244 245 247 249 250 250 246 242 243 246 254 262 264 260 261 259 268 282 267 258 260 251 241
181 178 177 177 178 178 179 177 180 187 197 206 210 224 237 245 250 253 256 257 258 258 255 255 255 256 258 250 254 249 262 260 267 263 250 256 259 256 252 257 259 262 246
190 190 189 188 187 191 193 202 200 197 214 227 238 248 255 255 259 264 267 264 260 260 262 262 258 257 258 252 243 253 242 261 248 230 256 259 256 257 263 264 259 259 258
198 200 202 201 200 201 204 215 228 235 227 236 250 261 269 272 272 262 260 264 265 259 258 259 261 255 255 256 243 243 240 249 255 253 254 248 260 274 269 270 260 257 255
206 209 211 211 211 214 223 233 241 248 248 251 252 254 257 260 257 261 260 261 261 262 261 258 259 259 254 252 250 242 245 248 240 241 249 261 258 271 265 260 259 258 259
211 212 209 217 231 243 254 256 260 262 267 252 253 253 256 258 263 267 276 259 257 257 258 258 255 255 253 250 244 245 234 249 240 247 245 251 258 264 259 254 252 256 256
233 218 236 266 260 252 249 251 246 242 244 244 253 260 262 264 268 273 277 278 265 258 256 256 257 254 252 247 241 238 234 242 236 246 253 251 252 256 251 252 258 250 249
259 259 259 272 283 258 256 256 251 248 248 250 250 257 265 272 274 273 271 273 270 265 258 255 256 256 251 247 239 233 237 235 239 241 241 249 255 249 252 252 245 243 247
261 257 251 247 241 241 246 233 235 238 243 252 259 264 272 275 272 272 267 268 272 268 262 257 257 258 252 244 237 224 223 228 228 239 238 240 245 249 245 239 239 247 258
264 254 242 237 236 238 233 226 232 238 244 249 255 260 269 273 271 267 259 260 266 268 255 251 257 259 252 241 234 227 226 230 225 236 233 237 241 239 238 238 247 254 242
269 265 270 262 255 249 238 232 234 236 240 242 247 253 259 266 272 272 265 260 262 256 261 251 248 252 252 241 240 231 229 225 225 231 234 238 237 236 238 245 248 238 236
298 277 254 255 259 266 262 247 239 240 242 244 246 248 255 258 264 263 267 266 269 262 255 250 251 247 248 244 235 233 235 235 231 236 246 246 241 239 244 241 235 234 235
301 298 290 274 259 252 256 263 257 246 242 243 243 247 252 253 253 258 256 257 259 263 257 252 245 247 247 247 239 230 224 236 233 247 253 244 241 247 240 233 233 234 235